Wind_Speed
89 92 94 97 99 101 103 105 107 108 106 100 95 92 92 90 86 81 76 71 69 68 69 70 72 78 84 89 93 94 91 87 83 79 77 72 68 66
93 95 97 100 101 101 101 101 100 101 102 95 90 86 86 88 85 81 77 73 69 67 66 65 65 67 71 77 84 90 94 94 90 86 81 75 71 66
96 98 100 101 101 100 99 97 96 97 98 94 88 84 82 84 85 85 83 78 74 71 69 67 65 63 63 65 70 77 83 88 91 92 87 80 75 70
98 100 100 100 99 97 95 93 92 92 92 90 83 78 75 75 78 81 82 83 81 77 74 72 68 65 63 62 62 65 69 75 80 86 89 85 80 75
99 99 98 96 94 92 90 89 87 85 83 82 78 73 69 66 69 72 75 77 79 80 80 77 74 71 68 65 63 61 62 65 69 74 80 82 83 80
97 96 93 91 89 88 86 83 81 78 75 73 71 68 65 63 64 64 65 67 70 74 78 80 79 76 73 69 66 64 62 61 62 64 68 72 77 78
93 90 87 86 86 84 80 77 74 72 69 68 66 65 63 61 59 59 58 56 57 62 68 74 77 77 76 74 71 68 66 63 61 59 60 62 66 70
88 84 83 83 81 77 73 71 69 67 66 65 63 62 59 57 56 53 51 48 45 46 55 60 67 72 74 74 72 70 67 65 62 58 56 57 59 63
83 82 81 79 75 71 68 65 63 62 63 63 61 59 57 54 53 49 45 41 36 33 39 45 52 59 63 66 66 65 64 62 60 56 53 53 53 57
81 81 79 74 71 68 65 61 59 57 57 57 58 57 54 51 48 44 39 32 25 24 27 30 36 44 49 52 54 55 56 56 55 52 49 48 50 52
79 79 75 70 67 65 62 59 56 53 52 52 53 51 49 45 43 37 31 24 16 14 19 21 24 30 35 39 42 45 47 49 49 47 45 44 46 47
77 75 70 66 62 60 58 56 53 50 47 44 43 42 41 37 33 30 24 18 11 8 12 15 15 19 23 28 32 36 39 41 42 42 41 41 42 43
75 70 64 60 57 54 53 52 50 46 42 38 34 31 29 26 24 23 21 17 10 6 9 11 11 13 15 20 24 28 31 34 36 37 37 37 38 39
72 64 58 54 51 49 47 45 42 38 34 29 25 22 21 20 20 19 17 15 11 7 7 9 11 13 14 17 20 24 27 29 31 32 33 33 34 36
65 57 53 49 46 43 40 37 33 29 25 21 20 19 19 19 18 17 15 13 9 7 6 8 11 13 16 18 20 22 24 27 29 30 30 31 32 34
57 51 48 44 41 37 33 29 25 22 21 20 19 19 18 18 16 14 12 10 8 6 4 6 10 13 16 18 20 22 24 26 27 28 29 30 31 33
51 47 43 38 34 30 26 22 21 21 22 23 21 18 17 15 13 11 9 7 5 3 2 5 8 11 13 16 19 21 23 25 26 28 29 30 31 34
46 42 37 33 28 22 18 18 20 22 23 21 19 16 13 11 10 8 7 5 4 2 1 3 6 10 13 15 18 21 22 24 26 27 28 29 31 34
40 36 32 26 20 16 15 18 20 20 18 16 15 13 12 11 10 10 9 9 7 6 5 5 6 9 12 14 17 19 22 23 25 26 28 29 31 34
33 29 24 18 14 13 15 17 16 15 15 14 14 13 13 12 12 12 12 12 11 10 9 8 8 9 11 14 16 19 20 22 24 26 27 29 29 30
26 21 15 11 11 13 14 14 13 13 14 14 15 15 14 13 13 13 12 12 11 11 10 9 9 9 10 12 15 17 19 21 23 25 26 26 27 28
18 13 9 9 11 12 12 12 12 13 14 14 15 15 14 13 12 12 11 10 9 7 6 6 6 7 9 11 12 14 16 19 21 23 24 26 27 27
11 8 8 9 11 10 11 12 13 13 14 14 13 13 12 11 10 9 8 7 6 4 3 2 2 3 5 7 9 12 14 16 18 20 22 23 24 25
Wind_Direction
304 305 305 305 304 303 302 301 299 297 295 293 291 289 287 286 284 282 278 274 270 267 264 260 257 253 250 248 246 244 242 240 240 240 241 242 244 247
307 307 307 306 305 303 301 299 298 296 295 294 292 288 285 284 282 279 276 272 268 264 262 260 259 257 254 251 249 248 246 244 240 239 238 238 240 242
309 309 308 307 305 303 301 299 298 297 297 296 294 291 286 282 279 275 272 269 265 261 259 258 257 256 256 255 253 252 250 249 246 242 240 238 237 238
310 310 308 307 305 303 302 301 301 300 299 298 297 295 291 286 281 277 272 267 263 259 257 255 254 253 254 254 254 254 253 252 250 247 245 241 238 236
311 310 308 307 306 305 305 304 303 302 301 300 300 299 298 294 288 282 276 270 264 259 255 253 252 252 252 252 253 254 254 253 252 250 248 245 242 239
311 310 308 308 308 307 307 305 304 303 302 302 302 302 302 299 294 289 282 273 266 260 255 252 250 250 250 251 252 252 253 253 252 250 248 246 244 242
311 310 309 310 310 309 308 306 305 304 304 304 304 305 305 302 299 295 290 281 271 262 256 251 250 249 249 250 250 251 251 250 249 248 246 244 241 239
311 311 311 311 311 309 308 307 306 306 306 306 306 307 306 305 303 301 298 291 279 266 259 252 249 248 249 249 250 249 248 247 246 245 243 241 238 236
312 313 314 313 312 310 308 307 306 306 307 307 308 308 307 306 305 305 303 298 290 277 262 254 249 248 248 248 247 247 245 243 241 240 240 238 235 234
314 316 316 315 312 310 308 307 307 307 307 308 308 308 308 308 307 308 307 303 297 284 269 257 249 247 246 246 245 243 240 238 236 235 236 234 232 231
317 318 317 315 313 311 310 309 309 309 309 309 308 308 308 309 310 312 313 314 307 283 272 266 253 248 245 243 241 238 235 232 231 231 231 230 229 229
319 318 317 315 313 312 311 310 311 311 311 310 308 307 308 309 311 314 319 324 319 284 271 268 256 247 240 237 235 233 230 227 226 226 226 226 226 226
320 319 317 315 314 313 311 311 312 314 315 313 311 309 309 310 312 315 318 322 322 293 270 262 244 236 232 229 228 226 224 223 223 224 223 222 223 223
321 320 318 317 315 314 313 313 314 317 319 319 319 318 317 314 312 311 313 316 314 296 266 251 232 224 219 217 219 219 218 219 220 222 221 220 221 221
321 320 320 319 318 317 316 317 319 322 326 328 327 323 320 316 312 309 308 310 308 293 260 234 223 219 215 211 212 214 214 215 217 218 219 220 220 219
321 321 322 322 321 321 321 323 326 331 334 333 330 324 320 316 313 312 309 309 306 294 256 222 212 211 209 209 209 211 211 211 212 214 215 215 214 214
323 323 324 325 324 324 326 331 336 338 338 337 334 331 327 323 322 322 321 321 318 310 227 197 196 201 205 204 204 206 207 208 209 209 209 209 210 212
323 325 327 328 328 330 334 337 339 340 341 342 343 345 347 350 353 359 4 7 14 37 122 175 186 190 195 198 198 200 202 203 203 203 205 207 208 210
324 327 329 331 334 339 342 343 343 346 353 359 5 13 22 30 38 45 50 55 61 69 90 123 151 169 179 185 191 194 197 199 200 202 204 205 206 208
325 329 332 336 343 347 348 351 358 9 18 26 35 44 51 56 60 62 65 67 69 74 85 102 124 141 160 174 183 189 194 197 198 200 202 205 207 208
328 333 339 347 353 355 360 11 25 33 39 48 54 57 59 62 64 66 67 69 71 74 79 91 105 120 135 150 163 174 184 190 193 195 197 199 201 202
334 342 355 4 5 9 22 34 40 45 50 52 53 54 55 56 58 59 59 59 62 68 76 91 109 123 134 143 152 160 168 176 183 189 193 196 197 199
345 5 20 18 20 33 44 47 49 50 48 45 44 43 41 41 41 42 41 40 39 38 40 61 131 162 172 177 180 182 184 186 189 193 197 201 205 208
Height
5576 5563 5550 5537 5524 5509 5494 5478 5462 5453 5458 5463 5452 5439 5421 5411 5409 5407 5406 5406 5405 5405 5406 5408 5411 5415 5418 5423 5429 5435 5442 5449 5455 5462 5470 5476 5481 5487
5552 5540 5526 5512 5498 5483 5469 5454 5436 5417 5410 5419 5417 5413 5400 5387 5383 5379 5378 5380 5381 5382 5383 5384 5387 5390 5393 5397 5402 5407 5412 5420 5428 5437 5446 5454 5461 5467
5529 5515 5501 5486 5471 5457 5442 5428 5414 5396 5380 5380 5380 5378 5371 5361 5354 5349 5348 5349 5353 5357 5358 5361 5364 5367 5371 5375 5379 5383 5388 5394 5401 5410 5419 5430 5439 5448
5505 5490 5475 5459 5444 5429 5415 5402 5389 5375 5357 5347 5347 5343 5340 5333 5324 5318 5316 5317 5321 5327 5331 5335 5340 5345 5349 5353 5358 5362 5367 5372 5378 5385 5395 5406 5418 5426
5480 5465 5449 5433 5419 5404 5391 5378 5365 5352 5338 5324 5319 5315 5311 5306 5295 5289 5285 5285 5288 5294 5300 5307 5314 5320 5326 5332 5337 5342 5347 5353 5359 5365 5372 5382 5394 5405
5457 5440 5424 5409 5395 5382 5369 5356 5342 5331 5320 5308 5298 5293 5287 5281 5270 5262 5257 5256 5256 5261 5267 5276 5284 5292 5301 5309 5316 5322 5327 5333 5339 5346 5353 5362 5373 5384
5435 5418 5403 5388 5374 5360 5346 5334 5322 5311 5301 5291 5282 5274 5267 5258 5249 5240 5233 5230 5230 5232 5236 5245 5256 5266 5275 5284 5292 5299 5307 5314 5321 5328 5336 5345 5355 5365
5413 5400 5386 5370 5356 5343 5329 5316 5304 5293 5283 5274 5266 5257 5249 5240 5231 5223 5215 5210 5210 5214 5211 5220 5228 5238 5248 5258 5267 5276 5284 5293 5302 5311 5319 5328 5338 5349
5392 5379 5366 5351 5336 5324 5314 5303 5292 5281 5269 5258 5249 5241 5232 5225 5216 5210 5203 5197 5195 5196 5195 5201 5208 5216 5225 5234 5244 5253 5263 5273 5284 5295 5304 5314 5324 5334
5374 5359 5345 5332 5318 5305 5296 5288 5279 5270 5258 5247 5236 5227 5219 5211 5204 5198 5193 5189 5188 5186 5185 5189 5194 5200 5207 5216 5225 5234 5244 5256 5268 5280 5290 5301 5311 5321
5358 5342 5326 5314 5301 5288 5279 5271 5264 5257 5247 5236 5225 5215 5207 5201 5194 5189 5186 5182 5182 5180 5179 5181 5185 5190 5196 5203 5211 5220 5230 5242 5255 5267 5278 5288 5299 5308
5343 5327 5312 5298 5286 5275 5264 5256 5249 5243 5235 5228 5218 5208 5200 5194 5189 5184 5181 5179 5178 5177 5177 5178 5181 5184 5190 5195 5202 5210 5220 5232 5244 5256 5267 5278 5287 5297
5325 5312 5298 5285 5273 5263 5253 5244 5236 5229 5223 5216 5209 5202 5195 5190 5186 5182 5178 5176 5175 5176 5176 5177 5179 5182 5186 5191 5197 5205 5214 5225 5236 5248 5258 5268 5278 5287
5308 5296 5284 5273 5262 5252 5243 5235 5227 5220 5214 5207 5201 5196 5191 5187 5183 5180 5177 5175 5174 5174 5175 5176 5178 5180 5184 5189 5194 5202 5210 5220 5230 5240 5250 5260 5269 5278
5294 5283 5272 5262 5252 5243 5235 5227 5220 5214 5208 5202 5197 5193 5189 5185 5181 5178 5176 5174 5173 5173 5173 5174 5176 5179 5183 5187 5192 5199 5207 5216 5224 5234 5244 5253 5262 5271
5282 5272 5262 5253 5243 5235 5228 5221 5215 5209 5204 5199 5194 5190 5186 5182 5178 5176 5174 5172 5172 5172 5172 5173 5175 5178 5181 5185 5191 5197 5204 5212 5220 5229 5238 5247 5256 5264
5270 5262 5253 5245 5237 5229 5223 5217 5212 5207 5201 5196 5191 5186 5183 5179 5176 5174 5172 5171 5171 5171 5172 5173 5175 5177 5180 5185 5190 5195 5201 5209 5216 5225 5233 5242 5250 5258
5261 5253 5246 5238 5231 5225 5220 5215 5210 5205 5199 5194 5189 5185 5181 5178 5176 5174 5173 5172 5171 5171 5172 5173 5175 5177 5181 5185 5189 5194 5200 5206 5214 5221 5229 5237 5245 5252
5253 5246 5240 5233 5228 5223 5219 5214 5209 5204 5198 5194 5189 5185 5182 5180 5178 5177 5175 5174 5174 5173 5174 5174 5176 5178 5182 5185 5189 5194 5199 5205 5212 5219 5226 5233 5240 5247
5247 5241 5235 5230 5226 5222 5218 5214 5209 5204 5200 5196 5192 5188 5186 5184 5182 5180 5179 5178 5178 5177 5178 5178 5179 5180 5183 5186 5190 5194 5199 5205 5211 5217 5223 5229 5236 5242
5243 5237 5233 5229 5226 5222 5218 5214 5210 5207 5203 5199 5196 5193 5191 5188 5186 5185 5184 5183 5182 5182 5182 5183 5183 5184 5186 5188 5191 5195 5199 5204 5210 5215 5221 5227 5233 5239
5239 5235 5232 5229 5226 5223 5219 5216 5213 5210 5207 5204 5201 5198 5195 5193 5191 5189 5188 5187 5186 5186 5186 5187 5188 5189 5190 5193 5195 5197 5201 5205 5210 5215 5220 5226 5231 5236
5237 5235 5232 5230 5227 5224 5222 5219 5216 5213 5210 5208 5205 5202 5199 5197 5194 5192 5191 5190 5189 5188 5188 5188 5189 5190 5192 5194 5196 5199 5202 5206 5210 5214 5218 5223 5228 5233